Wind_Speed
81 81 81 81 82 82 83 83 84 84 85 85 86 86 87 87 88 88 88 89 89 90 90 91 91 92 93 93 94 95 96 97 97 98 99 99 99 100 100 100 100 100 100 101 101 101 102 102 102 102 102 102 102 102 102 102 103 103 103 103 103 103 104 104 104 104 104 105 105 106 106 106 107 107 107 107 108 108 108 109 109 109 109 110 110 109
82 82 82 83 83 84 84 84 85 86 87 88 88 89 89 90 90 91 91 92 92 93 93 94 94 95 95 96 97 97 98 99 99 100 101 101 102 102 102 102 102 103 103 103 103 103 103 103 103 103 103 103 103 103 103 103 103 103 103 103 103 104 104 104 104 105 105 105 105 106 106 107 107 107 108 108 108 109 109 110 110 110 110 111 111 111
84 84 84 84 85 85 86 87 87 88 89 90 91 91 92 93 93 94 94 95 96 96 97 97 97 98 98 99 99 100 100 101 101 102 102 103 103 103 104 104 104 104 104 105 105 105 105 105 105 104 104 104 104 104 103 103 103 103 103 103 103 103 104 104 104 104 104 105 105 105 106 106 107 107 108 108 108 109 109 110 110 110 111 111 111 111
85 86 86 86 87 87 88 89 90 91 92 93 94 94 95 96 96 97 97 98 99 99 100 100 100 100 101 101 101 102 102 102 103 103 103 104 104 104 105 105 105 105 106 106 106 106 106 106 105 105 105 105 105 104 104 104 103 103 103 103 103 103 103 103 104 104 104 104 105 105 106 106 107 107 107 108 108 108 109 109 109 110 111 111 111 111
87 87 88 88 89 90 91 92 92 94 95 95 96 97 98 98 99 99 100 100 101 102 102 103 103 103 103 103 103 103 103 104 104 104 104 104 105 105 105 106 106 106 106 106 106 106 106 106 106 106 105 105 105 104 104 104 103 103 103 103 103 103 103 103 104 104 104 104 105 105 105 106 106 107 107 107 107 108 108 108 109 109 110 110 110 111
89 90 90 91 92 93 93 94 95 97 97 98 99 100 101 101 102 102 103 103 104 104 105 105 105 105 105 105 105 105 105 105 105 105 105 105 105 105 106 106 106 106 106 106 106 106 106 106 106 106 105 105 105 104 104 104 103 103 103 103 103 103 103 103 104 104 104 104 104 105 105 105 106 106 106 107 107 107 107 107 108 108 108 109 109 109
92 92 93 94 95 95 96 97 98 99 100 101 102 102 103 103 104 104 105 105 106 106 106 106 106 106 106 106 106 105 105 105 105 105 105 105 105 105 106 106 106 106 106 106 106 106 105 105 105 105 105 105 105 104 104 104 103 103 103 103 103 103 103 103 103 104 104 104 104 104 104 105 105 105 105 105 106 106 106 106 106 106 107 107 107 107
95 95 96 97 97 98 99 100 101 102 103 103 104 105 105 105 106 106 106 107 107 107 108 108 107 107 107 106 106 106 106 106 106 105 105 105 105 105 105 105 105 105 105 105 105 104 104 105 105 105 105 105 105 104 104 104 103 103 103 103 103 102 102 103 103 103 103 103 103 103 103 104 104 104 104 104 104 104 104 104 104 104 104 105 105 105
98 98 99 99 100 101 102 103 103 104 104 105 106 107 107 107 107 107 107 108 108 108 108 109 108 108 107 107 106 106 106 106 106 105 105 105 105 105 105 105 105 104 104 103 103 103 103 103 104 104 104 104 104 104 104 103 103 102 102 102 102 101 101 101 101 102 102 102 102 102 102 102 102 102 102 102 102 101 101 101 101 101 101 102 102 102
100 101 102 102 103 103 104 105 106 106 106 107 107 108 108 109 109 109 109 109 108 108 108 109 109 108 107 107 106 106 106 106 105 105 104 104 104 104 104 104 103 103 102 101 101 101 102 102 102 103 103 103 103 103 103 102 101 101 101 100 100 100 100 100 100 100 100 100 100 99 99 99 99 99 99 99 99 98 98 98 98 98 98 98 99 99
103 104 104 105 105 105 106 107 108 108 108 108 109 109 109 109 109 109 110 109 109 108 108 108 108 108 107 107 106 106 106 105 105 104 104 104 104 103 103 103 102 101 100 100 99 99 100 100 101 101 102 102 101 101 101 100 99 99 98 98 98 97 97 97 97 97 97 97 97 97 97 96 96 96 96 96 95 95 94 94 94 94 95 95 95 95
106 106 106 107 107 107 108 108 109 109 109 110 110 110 110 109 109 109 109 109 109 109 108 108 107 107 107 106 106 106 105 105 104 104 104 103 103 103 102 101 100 99 98 98 98 98 98 98 99 99 99 99 99 98 98 97 96 96 95 95 95 94 94 94 94 94 94 94 94 93 93 93 93 93 92 92 91 91 90 90 90 90 91 91 91 91
107 107 108 108 108 109 109 110 110 110 110 110 111 111 111 110 109 108 108 108 108 108 107 107 107 107 106 106 106 106 106 105 105 104 104 103 103 102 101 99 98 97 96 96 95 95 95 95 96 96 96 95 95 95 94 93 93 93 92 92 91 91 91 91 91 91 90 90 90 90 90 90 89 89 88 88 87 87 86 86 86 86 87 87 87 86
108 108 109 109 110 110 110 110 111 111 111 111 110 110 110 109 108 108 108 107 107 106 106 106 106 106 105 105 105 106 106 105 104 104 103 103 102 100 99 97 96 94 93 93 93 92 92 92 92 92 92 91 91 91 90 90 89 89 89 88 88 88 88 87 87 87 87 87 87 86 86 86 86 85 84 83 83 82 82 82 82 82 83 82 82 82
109 110 110 111 111 111 111 111 111 111 111 111 110 109 109 108 107 107 107 107 106 106 105 105 105 105 105 105 105 105 105 104 103 102 102 101 99 98 96 94 92 91 90 90 90 89 89 88 88 88 87 87 87 86 86 86 86 85 85 85 84 84 84 84 84 83 83 83 83 83 83 82 82 81 80 79 78 78 78 78 78 78 78 78 78 78
110 111 111 111 112 112 111 111 111 111 111 110 109 108 108 108 107 106 106 106 105 105 105 105 105 104 104 103 102 102 102 102 101 100 99 98 96 94 92 90 88 87 87 86 86 85 85 84 84 84 83 83 83 83 82 82 82 82 82 81 81 81 81 80 80 80 80 80 80 79 79 78 78 77 76 75 74 74 74 74 74 74 74 74 74 74
111 111 112 112 112 112 111 111 110 110 110 109 108 108 107 107 106 106 106 105 105 104 104 104 103 103 102 101 100 99 98 98 98 96 95 94 92 90 88 86 84 83 83 82 82 81 81 80 80 80 79 79 79 79 79 79 78 78 78 78 77 77 77 77 77 77 76 76 76 76 75 75 74 72 71 71 70 70 71 71 71 70 70 70 70 70
112 112 112 112 112 112 111 110 110 109 109 108 108 107 106 106 105 105 104 104 103 103 103 102 101 100 99 98 96 95 94 94 94 92 91 89 88 86 84 82 80 79 79 78 78 78 77 77 76 76 76 76 75 75 75 75 75 75 75 74 74 74 73 73 73 73 73 73 73 72 72 71 69 68 67 67 66 67 67 67 67 66 66 66 66 66
112 112 112 112 112 111 110 110 109 109 108 108 107 106 106 105 104 103 102 101 101 100 100 99 97 96 94 93 92 91 90 89 89 88 86 85 83 82 80 78 76 75 74 74 74 74 74 73 73 73 73 72 72 72 72 72 72 71 71 71 71 70 70 70 70 70 70 69 69 68 68 66 65 64 63 62 62 63 63 63 63 63 62 62 62 62
112 111 111 111 110 110 110 109 108 108 107 107 106 105 105 103 102 101 100 98 97 96 95 94 93 91 90 89 88 87 85 85 84 83 81 80 79 78 76 74 73 71 71 71 71 71 70 70 70 70 69 69 69 69 68 68 68 68 68 67 67 67 67 67 66 66 66 66 65 65 63 62 60 59 58 58 59 59 60 59 59 59 59 59 59 59
111 111 110 109 109 109 108 108 107 106 106 105 104 103 102 100 99 97 96 94 93 92 91 90 88 87 85 84 83 83 81 80 80 78 77 76 75 74 73 71 69 68 68 68 68 67 67 67 67 67 66 66 66 65 65 65 64 64 64 64 64 64 63 63 63 63 63 62 61 60 59 58 56 55 54 55 56 56 56 56 56 56 56 56 56 56
111 110 109 108 108 108 107 106 105 105 104 103 102 100 98 97 95 94 92 90 89 88 87 85 84 83 82 81 80 79 78 77 75 74 73 72 72 71 70 68 67 65 65 65 64 64 64 63 63 63 63 63 62 62 61 61 61 61 61 61 60 60 60 60 60 59 59 58 58 56 55 53 52 51 51 52 53 53 53 53 53 53 53 53 53 53
110 109 108 108 107 106 105 104 103 102 100 99 98 96 94 92 91 90 88 86 85 84 82 81 80 79 78 78 77 76 75 73 72 70 69 68 68 68 67 65 64 63 62 62 61 61 60 60 60 60 60 60 59 59 58 58 58 57 57 57 57 57 57 57 56 56 55 55 54 52 51 50 49 48 49 49 50 50 50 50 50 50 51 51 51 51
109 109 107 106 105 104 103 102 100 98 97 95 93 91 89 88 87 85 84 82 81 80 79 78 77 76 75 74 73 72 71 70 68 66 65 65 64 64 64 62 61 60 59 59 58 58 57 57 57 57 57 56 56 55 55 55 54 54 54 54 55 54 54 54 53 53 52 51 50 49 48 47 46 46 46 47 47 48 48 48 48 48 48 49 49 49
108 107 106 104 103 101 100 98 96 95 93 91 89 87 85 83 82 81 80 79 78 76 75 74 74 73 72 71 70 69 68 66 65 63 62 61 61 61 61 60 58 57 57 56 56 55 54 54 54 54 53 53 53 52 52 52 51 52 52 52 52 51 51 51 50 49 49 48 47 46 45 44 44 44 44 45 45 45 45 45 46 46 46 46 46 46
106 105 103 102 100 98 96 94 92 90 88 87 85 83 81 80 78 77 76 75 74 73 72 71 70 70 69 68 67 66 65 63 61 60 58 58 58 58 58 57 56 55 54 54 53 52 51 51 51 50 50 50 49 49 49 49 49 49 49 49 49 49 48 47 47 46 46 45 44 43 43 42 42 42 42 42 43 43 43 43 43 43 44 44 44 44
104 102 101 98 96 94 92 90 88 86 84 83 81 80 78 77 75 74 73 72 71 70 69 68 67 67 66 65 64 63 62 60 58 56 55 55 55 56 56 55 54 53 52 51 50 49 48 48 47 47 47 47 47 47 47 47 47 47 47 46 46 46 45 45 44 43 43 42 42 41 41 40 40 40 40 40 40 40 41 41 41 41 41 41 42 42
102 100 97 95 93 91 88 86 84 82 81 79 78 76 75 74 72 71 70 69 68 67 66 65 64 63 63 62 61 60 58 57 55 53 52 52 53 53 53 53 52 51 50 49 47 46 45 45 44 44 44 44 44 44 44 44 44 44 44 44 44 43 43 42 42 41 41 40 40 39 39 38 38 38 38 38 38 38 38 38 38 39 39 39 39 39
98 96 94 92 89 87 85 83 81 79 77 76 75 73 72 71 69 68 67 66 65 64 63 62 61 61 60 59 58 57 55 54 52 51 50 50 50 51 51 50 49 48 47 46 45 44 43 42 41 41 41 41 42 42 42 42 42 42 42 42 41 41 40 40 40 39 39 39 38 37 37 36 36 36 36 36 36 36 36 36 36 36 37 37 37 37
95 92 90 88 86 84 82 80 78 76 75 73 71 70 69 68 67 66 64 63 62 61 60 59 59 58 57 56 55 54 52 51 49 48 48 48 48 49 48 48 47 46 45 44 43 42 41 40 39 39 39 39 39 39 40 40 40 40 40 40 40 39 38 38 38 38 37 37 36 36 35 35 34 34 34 34 34 34 34 34 34 35 35 35 35 35
91 89 87 85 83 81 79 77 75 73 72 70 69 67 66 65 64 63 62 61 59 58 57 57 56 55 54 53 52 51 50 48 47 46 46 46 46 46 46 45 44 44 43 42 41 40 39 38 37 37 37 37 37 37 37 38 38 38 38 38 38 37 37 37 36 36 36 35 35 34 34 33 32 32 32 32 32 32 32 32 32 33 33 33 33 33
87 85 83 81 79 77 76 74 72 70 69 67 66 64 63 62 61 60 59 58 57 56 55 54 53 52 51 50 49 49 47 46 45 45 44 44 44 44 43 43 42 41 41 40 39 38 37 36 35 35 34 34 34 35 35 36 36 37 37 37 36 36 36 35 35 35 35 34 34 33 32 32 31 31 30 30 30 30 30 30 31 31 31 32 32 32
83 81 79 77 76 74 72 71 69 67 65 64 63 62 60 59 58 57 56 55 54 53 52 51 50 50 49 48 47 46 45 44 44 43 43 43 42 42 41 40 40 40 39 39 38 37 35 34 33 33 32 32 32 33 33 34 34 35 35 35 35 35 35 34 34 34 34 33 33 32 31 31 30 29 29 28 28 28 28 29 29 30 30 30 31 31
79 77 76 74 72 70 69 67 65 64 62 61 60 59 58 57 56 55 54 53 52 51 50 49 48 47 46 46 45 44 43 42 42 42 41 41 40 40 39 39 38 38 37 37 36 35 34 33 32 31 31 30 31 31 31 32 33 34 34 34 34 34 34 34 33 33 33 32 32 31 30 30 29 28 28 27 27 27 27 27 28 29 29 30 30 30
76 74 72 70 68 67 65 64 62 61 60 58 57 56 55 54 53 52 51 51 50 48 48 47 46 45 44 43 43 42 41 41 40 40 40 39 39 38 38 37 37 36 36 36 35 34 33 32 31 30 29 29 29 29 30 31 31 32 33 33 33 33 33 33 33 33 32 32 31 31 30 29 29 28 27 27 26 26 26 26 27 28 28 29 30 30
72 70 68 67 65 64 62 61 59 58 57 56 55 54 53 52 51 50 49 48 47 46 46 45 44 43 42 42 41 40 40 39 39 39 38 38 37 37 36 36 35 35 34 34 34 33 32 31 30 29 28 27 27 28 28 29 30 31 32 32 32 32 32 32 32 32 32 31 31 30 30 29 28 28 27 26 26 25 25 26 26 27 28 28 29 29
69 67 65 64 62 61 59 58 57 55 54 53 52 51 50 49 48 47 47 46 45 44 44 43 42 41 41 40 39 39 38 38 37 37 37 37 36 35 35 35 34 34 33 33 33 32 31 31 30 29 28 27 26 26 27 28 29 29 30 31 31 31 31 31 32 32 32 32 31 31 30 29 29 28 27 26 25 25 25 25 25 26 27 28 29 29
65 64 62 61 59 58 57 55 54 53 52 51 50 49 48 47 46 45 45 44 43 42 42 41 40 40 39 39 38 37 37 36 36 36 36 35 35 34 34 33 33 32 32 32 31 31 31 30 29 28 27 27 26 26 26 27 27 28 29 30 30 30 30 31 31 31 31 32 31 31 31 30 29 28 27 26 25 25 24 24 25 25 26 27 28 29
62 61 59 58 57 55 54 53 52 51 50 49 48 47 46 45 44 43 43 42 41 41 40 39 39 38 38 37 37 36 35 35 34 34 34 34 34 33 33 32 32 31 31 31 30 30 30 29 29 28 27 26 26 25 25 26 26 27 28 28 29 29 30 30 30 31 31 31 32 32 31 31 30 29 28 26 25 24 24 24 24 25 26 27 28 28
60 58 57 56 54 53 52 51 50 49 48 46 46 45 44 43 42 41 41 40 39 39 38 38 37 37 37 36 35 35 34 34 33 33 33 33 32 32 32 31 30 30 30 29 29 29 29 29 28 28 27 26 26 25 25 25 26 27 27 28 28 28 29 29 30 30 31 31 32 32 32 32 31 30 29 27 26 25 24 24 24 24 25 26 27 28
57 56 55 53 52 51 50 49 48 47 46 44 44 43 42 41 40 40 39 38 38 37 37 36 36 36 35 35 34 34 33 33 32 32 32 31 31 31 30 30 29 29 29 28 28 28 28 28 28 28 27 27 26 25 25 25 26 26 27 27 28 28 28 29 29 30 31 31 32 32 33 33 32 31 30 29 27 26 25 24 24 24 25 26 27 27
55 53 52 51 50 49 48 47 46 45 44 43 42 41 40 39 38 38 37 37 36 36 35 35 34 34 34 34 33 33 32 32 31 31 30 30 30 29 29 28 28 28 28 28 27 28 28 28 28 28 27 27 26 26 26 26 26 26 27 27 27 27 28 28 29 30 30 31 32 33 33 33 33 32 31 30 29 27 26 25 24 25 25 26 27 27
52 51 50 49 48 47 46 45 44 43 42 41 40 39 38 37 37 36 36 35 35 34 34 33 33 33 33 33 32 32 31 30 30 30 29 29 28 28 28 27 27 27 27 27 27 27 27 28 28 28 27 27 27 27 27 26 26 27 27 27 27 27 28 28 29 30 31 31 32 33 33 33 33 33 33 31 30 28 27 26 25 25 25 26 26 27
50 49 48 47 46 45 44 43 42 41 40 39 38 37 37 36 35 35 34 34 33 33 33 32 32 31 31 31 31 30 30 29 29 28 28 28 28 27 27 27 27 26 26 27 27 27 27 27 27 28 28 28 28 28 27 27 27 27 27 27 27 27 27 28 29 30 31 31 32 33 33 33 34 34 34 33 32 30 29 27 26 25 25 26 26 27
48 47 46 45 44 43 42 41 40 39 38 38 37 36 35 34 34 33 33 32 32 32 31 31 30 30 30 29 29 29 29 28 28 28 27 27 27 27 27 27 26 26 26 26 27 27 27 27 27 28 28 28 29 28 28 28 28 27 27 27 27 27 27 28 29 30 31 31 32 32 33 33 34 34 34 34 33 32 30 28 27 26 26 26 26 26
46 45 44 43 42 41 40 39 39 38 37 36 35 34 34 33 32 32 31 31 31 30 30 29 29 28 28 28 27 27 27 27 27 27 27 27 27 27 27 27 27 27 27 27 27 27 27 28 28 28 28 29 29 29 28 28 28 28 28 27 27 28 28 28 29 29 30 31 32 32 32 33 34 34 35 35 34 33 32 30 28 27 26 26 26 26
44 43 42 41 40 39 39 38 37 36 35 35 34 33 32 32 31 31 30 30 29 29 29 28 27 27 26 26 26 26 26 26 26 26 26 27 27 27 27 27 27 28 28 28 28 28 28 28 28 29 29 29 29 29 29 28 28 28 28 28 28 28 28 28 28 29 30 30 31 32 32 33 34 34 35 35 35 34 33 31 29 28 27 26 26 25
42 41 40 40 39 38 37 37 36 35 34 33 32 32 31 30 30 29 29 28 28 27 27 27 26 26 25 25 24 24 24 25 25 25 26 26 27 27 27 28 28 29 29 29 29 29 29 30 30 30 30 30 30 29 29 29 29 29 29 29 28 28 28 28 28 28 29 30 30 31 32 33 34 34 35 35 35 35 34 32 30 28 27 26 26 25
41 40 39 38 37 37 36 35 34 34 33 32 31 30 30 29 28 28 27 27 26 26 25 25 25 24 24 23 23 23 23 24 24 25 25 26 26 27 28 29 29 30 30 30 31 31 31 31 31 31 31 31 31 30 30 30 30 30 30 30 30 29 29 28 28 28 28 29 30 31 32 33 33 34 35 36 36 35 34 33 31 29 28 27 26 25
39 38 37 36 36 35 34 34 33 32 31 31 30 29 29 28 27 27 26 25 25 25 24 24 23 23 22 22 22 22 22 23 23 24 25 25 26 27 28 29 29 30 31 31 31 32 32 32 32 31 31 31 31 31 31 31 31 31 31 31 30 30 30 29 28 28 28 29 29 30 31 32 33 34 35 36 36 35 34 33 31 30 28 27 27 26
37 36 36 35 34 34 33 32 31 31 30 29 29 28 27 27 26 26 25 24 24 23 23 22 22 22 21 21 22 22 22 23 23 24 24 25 26 27 28 28 29 30 30 31 31 32 32 32 32 32 31 31 31 32 32 32 32 31 31 31 31 31 30 30 29 29 29 29 29 30 31 32 33 34 35 35 35 35 34 33 31 30 29 28 27 26
Wind_Direction
292 292 292 291 291 291 291 291 290 290 290 290 289 289 289 289 288 288 288 287 287 286 286 285 285 285 284 284 284 284 284 284 284 284 283 283 283 283 282 282 282 281 281 280 280 279 279 278 278 277 277 276 276 276 275 275 275 274 274 274 274 273 273 273 272 272 272 271 271 271 270 270 270 269 269 269 268 268 268 267 267 267 266 266 266 265
293 292 292 292 292 291 291 291 291 290 290 290 290 289 289 289 288 288 288 287 287 287 286 286 285 285 285 284 284 284 284 284 283 283 283 283 283 283 282 282 282 281 281 281 280 280 279 279 278 278 278 277 277 276 276 276 275 275 275 274 274 274 273 273 273 272 272 271 271 271 270 270 269 269 269 268 268 268 267 267 267 267 266 266 266 266
293 293 292 292 292 292 291 291 291 291 290 290 290 290 289 289 289 288 288 288 287 287 286 286 286 285 285 284 284 284 284 283 283 283 283 283 283 283 282 282 282 282 281 281 281 280 280 279 279 279 278 278 278 277 277 276 276 276 275 275 275 274 274 273 273 272 272 272 271 271 270 270 269 269 268 268 267 267 267 267 266 266 266 266 266 266
293 293 293 292 292 292 292 291 291 291 291 290 290 290 289 289 289 288 288 288 287 287 287 286 286 285 285 284 284 284 284 283 283 283 283 283 283 283 282 282 282 282 281 281 281 281 280 280 280 279 279 279 278 278 277 277 277 276 276 275 275 275 274 274 273 273 272 271 271 270 270 269 269 268 268 268 267 267 267 266 266 266 266 266 266 266
293 293 293 293 292 292 292 292 291 291 291 290 290 290 289 289 289 288 288 288 287 287 286 286 286 285 285 285 284 284 284 283 283 283 283 283 283 283 282 282 282 282 281 281 281 281 280 280 280 280 279 279 279 278 278 278 277 277 276 276 275 275 274 274 273 273 272 271 271 270 270 269 269 269 268 268 267 267 267 266 266 266 266 266 266 266
293 293 293 293 293 292 292 292 291 291 291 290 290 290 289 289 289 288 288 288 287 287 286 286 286 285 285 285 284 284 284 284 284 283 283 283 283 283 282 282 282 281 281 281 281 281 281 280 280 280 280 279 279 279 278 278 277 277 276 276 275 275 274 274 273 273 272 271 271 270 270 270 269 269 268 268 268 267 267 267 267 266 266 266 266 266
294 293 293 293 293 292 292 292 291 291 291 291 290 290 289 289 289 288 288 288 287 287 286 286 286 286 285 285 285 285 285 284 284 284 284 283 283 283 282 282 282 281 281 281 281 281 281 281 280 280 280 280 279 279 278 278 277 277 276 276 275 275 274 274 273 273 272 272 271 271 270 270 269 269 269 269 268 268 268 267 267 267 267 267 266 266
294 294 294 293 293 293 292 292 291 291 291 291 290 290 289 289 288 288 288 287 287 287 287 286 286 286 286 286 286 286 285 285 285 284 284 284 283 283 282 282 281 281 281 281 281 281 281 281 280 280 280 280 279 279 278 278 277 277 276 276 275 275 274 274 273 273 272 272 271 271 271 270 270 270 269 269 269 268 268 268 268 267 267 267 267 266
294 294 294 293 293 293 293 292 292 291 291 290 290 290 289 289 289 288 288 288 287 287 287 287 287 287 287 287 286 286 286 285 285 285 284 284 283 282 282 282 281 281 281 281 281 281 281 281 280 280 280 279 279 278 278 277 277 276 276 275 275 274 274 274 273 273 272 272 272 271 271 270 270 270 269 269 269 269 268 268 268 268 267 267 267 267
295 294 294 294 294 293 293 293 292 291 291 291 290 290 289 289 289 288 288 288 288 288 288 288 288 287 287 287 287 287 286 286 285 285 284 284 283 283 282 282 281 281 281 281 281 281 281 280 280 280 279 279 278 278 277 277 277 276 276 275 275 274 274 274 273 273 272 272 272 271 271 271 270 270 270 269 269 269 269 269 268 268 268 267 267 267
295 295 295 294 294 294 293 293 292 292 291 291 290 290 289 289 289 289 289 289 289 289 289 289 288 288 288 288 288 287 287 286 286 285 284 284 283 283 282 282 282 281 281 281 281 281 280 280 280 279 279 278 278 277 277 277 276 276 276 275 275 274 274 273 273 273 272 272 272 271 271 271 270 270 270 270 269 269 269 269 268 268 268 267 267 267
296 295 295 295 294 294 293 293 292 292 291 291 290 290 290 290 289 289 289 289 290 290 290 289 289 289 289 288 288 288 287 286 286 285 285 284 283 283 282 282 282 282 282 281 281 281 280 280 279 278 278 278 277 277 277 277 276 276 276 275 275 274 274 273 273 273 272 272 271 271 271 271 270 270 270 270 270 269 269 269 269 268 268 267 267 267
296 296 295 295 294 294 293 293 292 292 291 291 291 290 290 290 290 290 290 290 290 290 290 290 290 289 289 289 288 288 287 287 286 286 285 284 284 283 283 282 282 282 282 282 281 280 280 279 278 278 278 277 277 277 277 276 276 276 275 275 274 274 273 273 273 272 272 272 271 271 271 271 270 270 270 270 270 270 269 269 269 268 268 267 267 267
296 296 295 295 294 293 293 292 292 292 291 291 291 291 291 291 291 291 291 291 291 291 290 290 290 289 289 289 288 288 287 287 286 286 285 284 284 283 283 283 283 282 282 282 281 280 279 279 278 278 278 277 277 277 276 276 276 275 275 274 274 274 273 273 273 272 272 272 271 271 271 270 270 270 270 270 270 270 269 269 268 268 268 268 267 267
296 296 295 294 294 293 293 292 292 292 292 292 292 292 292 292 292 292 292 291 291 291 291 290 290 289 289 288 288 288 287 287 286 286 285 284 284 283 283 283 283 283 282 281 281 280 279 279 278 278 277 277 277 276 276 276 275 275 274 274 274 273 273 273 272 272 272 271 271 271 270 270 270 270 270 270 270 269 269 269 268 268 268 267 267 267
296 295 295 294 294 293 293 293 293 292 292 292 293 293 293 293 293 292 292 292 292 291 291 290 290 290 289 288 288 287 287 286 286 285 285 284 284 283 283 283 283 283 282 281 281 280 279 279 278 278 277 277 276 276 276 275 275 274 274 273 273 273 273 272 272 272 271 271 271 271 270 270 270 270 270 270 270 269 269 268 268 268 267 267 267 267
295 295 294 294 294 293 293 293 293 293 293 293 293 293 293 293 293 293 292 292 292 292 291 291 290 289 289 288 287 287 286 286 285 285 284 284 284 284 284 283 283 283 282 281 281 280 279 279 278 278 277 276 276 276 275 275 274 274 273 273 273 272 272 272 271 271 271 271 270 270 270 270 270 270 270 270 269 269 268 268 268 267 267 267 267 266
295 295 295 294 294 294 294 294 294 294 294 294 294 294 294 294 293 293 293 292 292 292 291 291 290 289 289 288 287 287 286 285 285 285 284 284 284 284 284 284 283 283 282 281 281 280 279 279 278 277 277 276 275 275 275 274 274 273 273 273 272 272 272 271 271 271 271 270 270 270 270 270 270 270 270 270 269 269 268 268 267 267 267 266 266 266
295 295 295 295 295 295 295 295 295 295 295 295 295 295 294 294 294 293 293 293 292 292 291 290 290 289 288 288 287 286 286 285 285 285 285 285 285 284 284 284 283 283 282 281 280 280 279 278 278 277 276 276 275 275 274 274 273 273 273 273 272 272 271 271 271 271 270 270 270 270 270 270 270 270 270 269 269 268 267 267 267 266 266 266 265 265
296 295 295 295 295 295 296 296 296 296 295 295 295 295 295 294 294 294 293 293 292 292 291 290 289 289 288 287 287 286 286 285 285 285 285 285 285 285 284 284 283 283 282 281 280 279 278 278 277 277 276 275 275 274 274 274 273 273 273 272 272 272 271 271 271 270 270 270 270 270 270 270 270 270 269 269 268 267 267 266 266 265 265 265 264 264
296 296 296 296 296 296 296 296 296 296 296 296 296 295 295 295 295 294 294 293 292 291 291 290 289 289 288 288 287 286 286 286 285 285 286 285 285 285 284 284 283 282 281 280 280 279 278 278 277 276 276 275 275 274 274 274 273 273 273 272 272 271 271 271 270 270 270 270 270 270 270 270 270 269 268 267 266 266 266 265 265 265 264 264 264 263
297 297 297 297 297 297 297 297 297 297 297 296 296 296 296 295 295 294 294 293 292 291 291 290 289 289 288 288 287 287 286 286 286 286 286 286 285 285 284 284 283 282 281 280 279 279 278 277 277 276 275 275 275 274 274 273 273 273 272 272 271 271 271 270 270 270 270 270 270 270 270 270 269 268 267 266 265 265 265 264 264 264 263 263 263 262
298 298 298 298 298 298 298 298 297 297 297 297 297 296 296 296 295 294 294 293 292 291 291 290 290 289 289 288 287 287 287 286 286 286 286 286 285 285 284 283 282 282 281 280 279 278 278 277 276 276 276 275 275 274 274 274 273 273 272 272 271 271 270 270 270 270 270 270 270 270 270 269 268 267 266 265 264 264 264 264 263 263 263 263 262 262
299 299 299 299 299 299 298 298 298 298 298 297 297 297 296 296 295 294 294 293 292 292 291 291 290 289 289 288 288 287 287 287 287 287 287 286 285 285 284 283 282 281 280 279 278 278 277 277 276 276 276 275 275 274 274 273 273 272 271 271 271 270 270 270 270 270 270 270 270 269 269 268 267 266 265 264 264 264 264 263 263 263 262 262 262 262
300 300 300 299 299 299 299 299 299 298 298 298 297 297 296 295 295 294 294 293 292 292 291 291 290 290 289 289 288 288 287 287 287 287 287 286 285 284 283 283 282 281 280 279 278 278 277 277 276 276 276 275 275 275 274 273 272 271 271 270 270 270 270 270 270 270 270 270 269 269 268 267 266 265 264 264 263 263 263 263 263 262 262 262 262 261
300 300 300 300 300 300 300 299 299 299 298 298 297 297 296 295 295 294 293 293 293 292 292 291 290 290 289 289 288 288 288 288 288 288 287 286 285 284 283 282 281 281 280 279 278 278 278 277 277 276 276 275 275 274 273 272 272 271 270 270 270 270 270 270 270 270 269 269 268 268 267 266 265 265 264 263 263 263 263 263 262 262 262 262 261 261
301 301 300 300 300 300 300 300 299 299 299 298 298 297 296 296 295 294 294 293 293 292 292 291 290 290 289 289 289 288 288 288 288 288 287 286 285 283 283 282 281 280 280 280 279 278 278 277 277 276 276 275 274 273 272 272 271 270 270 270 270 270 269 269 269 269 268 268 268 267 266 266 265 264 264 263 263 263 263 262 262 262 262 262 261 261
301 301 301 301 301 301 300 300 300 299 299 298 298 297 297 296 295 295 294 293 293 292 292 291 291 290 290 289 289 289 289 289 289 288 287 285 284 283 282 282 281 281 280 280 279 278 278 277 276 275 274 274 273 272 271 271 271 270 270 269 269 269 269 268 268 268 267 267 267 266 266 265 265 264 263 263 263 263 263 262 262 262 262 261 261 261
301 301 301 301 301 301 301 300 300 300 299 298 298 297 297 296 296 295 294 294 293 293 292 291 291 290 290 290 290 289 289 289 289 288 286 285 283 282 282 282 281 281 281 280 279 278 277 276 275 274 273 272 272 271 271 270 270 269 269 269 268 268 268 268 267 267 266 266 266 265 265 264 264 264 263 263 263 263 263 262 262 262 262 261 261 261
302 302 302 302 302 301 301 301 300 300 299 299 298 297 297 296 296 295 294 294 293 293 292 292 291 291 291 290 290 290 290 289 288 287 285 284 283 282 282 282 282 281 281 280 279 278 277 275 274 273 272 271 271 270 270 269 269 269 268 268 268 267 267 266 266 266 265 265 265 264 264 264 263 263 263 263 263 263 263 262 262 262 262 261 261 261
302 302 302 302 302 301 301 301 300 300 299 299 298 297 297 296 295 295 294 294 293 293 293 292 292 291 291 291 290 290 290 289 288 286 285 284 283 282 282 282 281 281 280 279 278 277 276 275 274 272 271 271 270 269 269 269 268 268 267 267 267 266 266 265 265 265 264 264 264 263 263 262 262 262 262 262 262 262 262 262 262 262 262 262 262 262
302 302 302 302 301 301 301 300 300 300 299 299 298 297 297 296 295 295 294 294 294 293 293 293 292 292 291 291 290 290 290 289 287 286 285 284 283 282 282 281 281 281 280 279 277 276 276 274 273 272 271 270 269 268 268 267 267 267 267 266 266 265 265 264 264 263 263 263 263 262 262 261 261 261 261 261 261 261 261 262 262 262 262 262 262 262
302 302 301 301 301 301 301 300 300 299 299 298 298 297 296 296 295 295 295 294 294 294 293 293 292 292 291 291 290 290 289 288 287 285 284 283 283 282 282 281 281 280 279 278 277 276 275 274 272 271 270 268 267 266 266 266 266 265 265 265 265 264 264 263 263 262 262 262 262 261 261 260 260 259 259 259 259 259 259 260 261 261 262 262 262 262
302 302 301 301 301 301 300 300 299 299 298 298 297 297 296 296 296 295 295 295 294 294 293 293 292 292 291 291 290 289 288 287 286 285 284 283 283 282 281 281 280 279 278 278 277 276 275 273 271 270 268 267 265 264 264 263 263 263 264 264 264 264 264 263 263 262 262 261 261 261 260 260 259 258 257 257 257 257 257 257 258 259 260 260 261 261
301 301 301 301 301 300 300 300 299 299 298 298 297 297 297 296 296 296 295 295 294 294 293 293 292 292 291 290 289 289 288 287 286 285 284 283 282 282 281 280 279 279 278 277 277 276 274 273 271 268 266 265 263 262 261 261 261 261 262 262 263 263 263 263 263 263 262 262 261 261 260 259 258 257 256 255 255 254 254 255 255 256 257 258 259 259
301 301 301 301 301 300 300 299 299 298 298 298 297 297 297 297 296 296 295 295 294 294 293 293 292 292 291 290 289 288 287 286 286 285 284 283 282 281 281 280 279 278 278 277 276 275 274 273 271 268 265 263 260 259 258 258 258 259 260 261 261 262 263 264 264 264 264 263 263 262 261 260 258 257 256 254 253 253 252 252 253 254 255 256 257 257
301 301 301 301 301 300 300 299 299 299 298 298 297 297 297 297 296 296 295 295 294 294 293 293 292 291 290 289 288 288 287 286 285 284 284 283 282 281 280 280 279 278 277 276 276 275 274 272 270 268 265 261 258 255 254 254 255 256 257 259 260 261 262 263 264 265 265 265 265 264 263 262 260 258 256 255 253 251 251 250 251 252 253 254 255 256
302 302 301 301 301 300 300 299 299 299 298 298 298 297 297 296 296 295 295 294 294 294 293 292 292 291 290 289 288 287 286 285 285 284 283 282 281 281 280 279 279 278 277 276 275 274 273 272 270 268 265 262 257 254 251 250 251 252 254 256 258 259 261 262 263 264 265 266 266 266 265 264 263 261 259 256 254 252 251 250 250 251 252 253 254 255
302 302 301 301 301 300 300 299 299 299 299 298 298 297 297 296 296 295 295 294 293 293 293 292 291 290 289 289 288 287 286 285 284 283 283 282 281 280 280 279 279 278 277 276 275 274 273 272 270 268 266 262 258 254 251 248 247 248 250 252 254 257 258 260 262 263 264 265 266 267 267 266 265 263 262 260 257 254 253 252 251 251 252 253 254 255
302 302 301 301 300 300 300 299 299 299 298 298 298 297 297 296 295 295 294 294 293 293 292 291 291 290 289 288 287 287 286 285 284 283 282 281 281 280 280 279 278 278 277 276 275 274 273 272 270 269 266 264 260 256 252 249 246 245 246 247 249 252 254 257 259 261 263 264 265 266 266 266 266 265 264 262 260 258 255 254 253 253 253 254 255 255
302 302 301 301 300 300 300 299 299 299 298 298 297 297 296 296 295 295 294 294 293 292 291 291 290 289 289 288 287 286 285 285 284 283 282 282 281 280 280 279 278 277 276 275 275 274 273 271 270 269 267 265 262 258 255 251 248 246 244 243 244 246 249 252 255 257 259 261 262 264 265 265 266 266 265 264 262 260 258 256 255 254 255 255 256 256
302 301 301 300 300 300 300 299 299 298 298 297 297 296 296 295 295 294 294 293 292 292 291 290 289 289 288 288 287 286 286 285 284 283 282 282 281 280 280 279 278 277 276 275 273 273 272 271 270 269 267 265 263 260 257 254 251 248 245 243 242 242 243 246 249 252 254 257 259 261 262 263 264 265 265 264 263 261 258 257 255 255 255 256 256 257
302 301 301 300 300 300 299 299 298 298 297 297 296 296 296 295 295 294 293 293 292 291 290 290 289 288 288 287 287 287 286 285 284 283 282 282 281 280 279 278 277 276 275 273 272 271 270 270 269 268 267 265 263 261 258 256 254 251 248 245 243 241 239 240 243 246 249 252 254 257 259 261 263 263 264 263 262 261 259 256 255 254 254 255 256 257
301 301 300 300 300 299 299 298 298 297 297 297 296 296 295 295 294 294 293 292 291 290 290 289 289 289 288 288 287 287 286 285 285 284 283 282 281 280 279 278 277 275 274 273 272 270 270 269 268 268 267 266 264 262 260 258 256 254 251 249 246 242 240 239 239 241 243 246 249 252 255 258 260 261 262 262 262 261 258 256 254 253 253 253 255 256
301 301 300 300 299 299 298 298 298 297 297 296 296 295 295 294 294 293 292 292 291 290 290 289 289 289 288 287 287 287 286 286 285 284 283 283 282 281 280 279 277 276 275 274 273 271 270 269 268 268 267 266 265 263 262 260 258 256 254 252 249 246 243 241 240 240 240 242 245 248 251 253 256 258 259 260 261 260 258 256 254 252 252 252 253 254
301 300 300 300 299 298 298 297 297 297 296 296 295 295 295 294 293 293 292 291 291 290 290 289 289 288 288 287 287 286 286 286 286 285 285 284 284 283 282 281 280 279 278 277 275 274 273 272 270 269 268 267 267 266 265 263 261 259 257 255 252 249 246 243 241 240 240 241 242 244 246 249 252 254 256 257 259 259 258 256 255 253 251 251 251 252
301 300 300 299 299 298 298 297 297 296 296 296 295 295 294 294 293 292 292 291 291 290 290 289 289 288 287 287 286 286 286 286 286 286 287 286 286 285 285 284 283 282 281 280 279 278 276 275 274 273 272 270 269 269 268 266 265 263 261 258 256 253 250 246 244 242 240 240 241 242 243 245 247 250 252 254 256 257 257 256 255 253 252 250 250 251
300 300 299 299 298 298 297 297 296 296 296 295 295 294 294 293 292 292 291 291 290 290 289 289 288 288 287 286 286 286 286 286 286 287 287 287 287 287 287 286 286 285 284 283 282 281 280 278 277 276 275 274 273 272 271 270 268 267 265 262 260 257 254 250 247 244 242 241 241 241 242 243 245 247 249 251 253 254 255 255 255 253 252 251 250 249
300 299 299 298 298 297 297 296 296 296 295 295 294 294 293 293 292 291 291 290 289 289 288 288 287 287 286 286 286 285 285 285 285 285 286 286 286 286 286 286 285 285 284 284 283 282 281 280 279 278 277 276 275 274 273 271 270 269 267 265 263 261 258 255 252 248 246 244 242 241 241 242 243 245 246 248 250 251 253 254 254 253 252 251 249 248
299 299 298 298 297 297 296 296 295 295 295 294 294 294 293 292 291 291 290 289 288 288 287 287 286 286 285 285 284 284 283 283 283 283 283 283 283 284 284 284 283 283 283 282 282 281 281 280 279 278 278 277 276 275 273 272 270 269 268 266 265 263 261 259 256 252 250 247 244 243 242 242 242 243 245 246 248 249 251 252 253 252 252 250 249 247
299 298 298 297 297 296 296 295 295 294 294 294 293 293 292 291 291 290 289 289 288 287 287 286 286 285 284 284 283 282 282 281 281 281 281 281 281 281 281 281 281 281 280 280 280 280 279 279 279 278 277 276 276 274 273 271 270 268 267 266 264 263 262 260 258 255 252 249 247 245 243 243 243 243 244 245 246 248 249 250 251 251 250 249 248 247
Height
10386 10384 10382 10380 10378 10375 10372 10370 10368 10366 10362 10360 10358 10356 10354 10352 10350 10349 10347 10345 10343 10341 10340 10338 10337 10335 10333 10330 10328 10325 10323 10320 10318 10315 10313 10311 10309 10308 10306 10305 10303 10302 10301 10299 10298 10296 10294 10293 10291 10290 10289 10288 10288 10287 10286 10285 10284 10283 10283 10282 10281 10281 10281 10280 10279 10279 10278 10278 10278 10277 10276 10276 10275 10274 10274 10274 10274 10274 10273 10273 10273 10273 10273 10273 10272 10273
10378 10376 10374 10373 10371 10368 10364 10363 10361 10358 10355 10352 10349 10348 10346 10344 10341 10339 10338 10336 10334 10331 10330 10328 10326 10325 10323 10321 10318 10316 10313 10311 10308 10306 10304 10301 10299 10298 10296 10294 10293 10291 10289 10288 10286 10285 10283 10282 10281 10279 10278 10277 10276 10276 10275 10274 10274 10273 10273 10272 10271 10271 10270 10269 10269 10268 10268 10268 10267 10266 10266 10265 10264 10263 10263 10263 10263 10263 10262 10262 10261 10261 10261 10261 10261 10262
10371 10368 10366 10364 10363 10360 10357 10354 10352 10350 10348 10344 10341 10339 10337 10335 10333 10330 10328 10326 10324 10321 10319 10318 10316 10314 10313 10311 10308 10306 10304 10301 10299 10297 10294 10292 10290 10288 10286 10284 10282 10280 10278 10276 10275 10273 10272 10271 10269 10268 10267 10266 10265 10264 10264 10263 10263 10263 10262 10261 10260 10259 10259 10258 10258 10257 10256 10256 10256 10255 10254 10253 10253 10252 10252 10252 10252 10252 10252 10251 10251 10251 10250 10251 10251 10251
10363 10361 10358 10357 10355 10353 10349 10347 10344 10341 10339 10336 10333 10330 10328 10326 10323 10321 10319 10317 10314 10311 10308 10307 10306 10304 10302 10300 10298 10296 10293 10291 10289 10287 10285 10283 10280 10278 10276 10274 10271 10269 10268 10266 10264 10262 10261 10259 10258 10256 10256 10254 10254 10253 10253 10252 10251 10251 10251 10249 10249 10248 10248 10246 10246 10245 10245 10244 10244 10243 10243 10242 10241 10241 10241 10241 10241 10241 10241 10241 10241 10240 10240 10239 10239 10240
10356 10353 10351 10349 10347 10344 10341 10339 10336 10333 10329 10327 10324 10321 10318 10316 10314 10311 10309 10307 10304 10301 10298 10296 10294 10293 10291 10289 10287 10285 10283 10281 10278 10276 10274 10273 10271 10268 10266 10264 10261 10259 10257 10255 10253 10251 10249 10248 10247 10245 10244 10243 10242 10241 10241 10240 10239 10239 10239 10238 10237 10236 10236 10235 10234 10234 10233 10233 10232 10231 10231 10230 10230 10229 10229 10229 10229 10229 10229 10230 10230 10230 10229 10229 10229 10229
10348 10346 10343 10341 10338 10336 10333 10330 10327 10323 10321 10317 10314 10312 10309 10306 10304 10301 10299 10296 10293 10291 10288 10285 10283 10281 10279 10278 10276 10274 10272 10270 10268 10266 10264 10263 10260 10258 10256 10253 10251 10249 10246 10244 10243 10241 10239 10238 10236 10234 10233 10231 10231 10229 10229 10228 10228 10228 10227 10226 10226 10225 10224 10223 10223 10222 10221 10221 10220 10219 10219 10219 10218 10218 10218 10218 10218 10218 10219 10219 10219 10219 10219 10219 10219 10219
10339 10338 10335 10333 10329 10326 10324 10321 10318 10314 10311 10307 10304 10301 10299 10296 10293 10291 10288 10285 10282 10279 10276 10274 10272 10270 10268 10266 10264 10262 10260 10259 10257 10255 10253 10251 10249 10247 10244 10242 10240 10238 10236 10234 10233 10231 10229 10227 10225 10223 10221 10220 10219 10218 10217 10216 10216 10216 10215 10214 10214 10213 10213 10211 10211 10210 10209 10209 10208 10208 10208 10208 10208 10208 10207 10207 10207 10208 10208 10208 10208 10208 10209 10208 10208 10209
10330 10328 10326 10324 10321 10318 10314 10311 10308 10305 10301 10297 10293 10290 10288 10285 10282 10279 10277 10274 10271 10268 10266 10263 10261 10258 10257 10256 10253 10251 10249 10247 10245 10244 10242 10240 10238 10236 10233 10231 10229 10227 10226 10224 10223 10221 10219 10217 10214 10213 10210 10209 10207 10206 10205 10204 10204 10204 10203 10203 10203 10201 10201 10200 10199 10199 10198 10198 10197 10197 10196 10196 10196 10196 10196 10196 10196 10196 10196 10197 10198 10198 10198 10198 10198 10198
10321 10318 10315 10313 10311 10308 10304 10299 10296 10293 10291 10288 10283 10279 10276 10274 10271 10268 10266 10264 10261 10258 10255 10252 10249 10247 10246 10244 10243 10240 10237 10234 10233 10232 10231 10229 10226 10223 10221 10219 10218 10216 10215 10214 10213 10212 10209 10207 10204 10202 10199 10198 10196 10194 10193 10193 10193 10192 10192 10191 10191 10190 10189 10189 10188 10187 10187 10186 10186 10186 10185 10185 10185 10185 10185 10185 10185 10186 10186 10186 10187 10187 10188 10187 10187 10187
10311 10308 10305 10302 10299 10297 10294 10289 10284 10280 10279 10276 10273 10269 10266 10263 10260 10256 10254 10251 10249 10247 10245 10241 10238 10236 10234 10233 10230 10228 10226 10223 10221 10219 10218 10216 10214 10211 10209 10208 10206 10206 10205 10204 10203 10202 10199 10197 10194 10191 10189 10186 10184 10183 10183 10182 10181 10181 10181 10180 10179 10179 10178 10178 10177 10176 10176 10175 10175 10174 10174 10174 10174 10174 10174 10174 10175 10175 10176 10176 10176 10176 10176 10176 10176 10176
10299 10297 10294 10291 10288 10284 10281 10278 10273 10269 10267 10264 10261 10257 10254 10252 10249 10247 10244 10239 10237 10235 10234 10231 10228 10225 10223 10221 10218 10214 10213 10211 10208 10206 10204 10203 10201 10199 10197 10196 10195 10195 10194 10194 10193 10191 10189 10186 10184 10181 10178 10176 10174 10173 10172 10171 10171 10170 10170 10169 10169 10168 10167 10166 10166 10165 10165 10164 10164 10164 10164 10163 10163 10163 10164 10164 10165 10166 10166 10166 10166 10166 10166 10166 10166 10166
10289 10286 10283 10279 10276 10273 10269 10265 10262 10258 10256 10253 10249 10246 10241 10239 10238 10237 10234 10230 10226 10224 10223 10219 10216 10213 10211 10209 10206 10202 10199 10197 10195 10193 10191 10189 10188 10186 10185 10184 10184 10184 10184 10184 10183 10181 10178 10176 10173 10170 10168 10165 10164 10163 10162 10161 10161 10160 10159 10158 10158 10157 10156 10156 10155 10154 10154 10154 10154 10153 10153 10153 10153 10154 10154 10155 10156 10156 10156 10157 10156 10156 10156 10156 10156 10156
10278 10275 10272 10269 10265 10261 10258 10254 10250 10247 10244 10241 10239 10236 10231 10228 10226 10226 10224 10220 10217 10214 10213 10209 10205 10201 10199 10198 10194 10190 10186 10184 10182 10181 10179 10177 10175 10173 10173 10173 10173 10174 10174 10173 10171 10169 10167 10165 10162 10159 10157 10156 10154 10153 10152 10151 10150 10149 10149 10148 10147 10146 10146 10146 10145 10144 10144 10144 10144 10144 10143 10143 10144 10144 10145 10146 10147 10147 10148 10148 10147 10147 10147 10147 10147 10148
10268 10264 10261 10258 10254 10251 10248 10244 10240 10236 10232 10229 10228 10225 10222 10219 10216 10214 10213 10209 10206 10204 10202 10199 10196 10191 10188 10186 10182 10178 10175 10173 10170 10169 10167 10164 10163 10162 10163 10163 10163 10163 10163 10161 10159 10157 10156 10154 10152 10149 10148 10146 10144 10143 10143 10141 10141 10139 10139 10138 10138 10137 10136 10136 10136 10135 10135 10134 10134 10134 10134 10134 10135 10136 10137 10138 10138 10139 10139 10138 10138 10138 10138 10138 10138 10139
10257 10254 10250 10246 10242 10238 10236 10233 10229 10226 10221 10218 10216 10214 10212 10209 10206 10204 10202 10199 10196 10193 10190 10188 10185 10181 10178 10175 10171 10167 10164 10161 10159 10157 10156 10153 10151 10151 10153 10153 10153 10153 10152 10150 10148 10146 10145 10144 10142 10140 10138 10137 10136 10134 10133 10132 10131 10130 10129 10129 10128 10128 10127 10127 10126 10126 10126 10126 10126 10126 10126 10126 10126 10128 10129 10130 10130 10131 10130 10130 10129 10129 10129 10130 10130 10131
10246 10243 10239 10234 10231 10227 10224 10222 10219 10215 10211 10208 10205 10203 10201 10198 10195 10193 10191 10189 10185 10181 10179 10176 10173 10169 10166 10163 10160 10158 10154 10150 10148 10146 10144 10143 10141 10141 10143 10144 10144 10143 10141 10139 10138 10136 10134 10134 10133 10131 10129 10128 10126 10125 10124 10123 10121 10121 10120 10119 10119 10119 10118 10118 10118 10118 10118 10118 10117 10118 10118 10118 10119 10121 10121 10123 10123 10123 10122 10122 10122 10122 10122 10123 10123 10123
10235 10232 10228 10224 10220 10216 10213 10211 10209 10205 10201 10198 10196 10193 10191 10188 10185 10183 10181 10177 10174 10170 10168 10164 10161 10158 10154 10151 10148 10146 10144 10141 10137 10135 10134 10133 10131 10131 10133 10134 10134 10133 10131 10129 10128 10126 10125 10124 10123 10121 10120 10118 10117 10116 10115 10114 10113 10112 10111 10111 10111 10111 10111 10110 10110 10109 10109 10109 10109 10109 10110 10111 10113 10114 10114 10115 10115 10115 10114 10114 10114 10114 10115 10115 10116 10116
10224 10221 10217 10213 10209 10205 10202 10200 10197 10194 10190 10187 10184 10182 10179 10177 10174 10172 10169 10166 10163 10159 10155 10152 10149 10147 10144 10141 10137 10135 10134 10131 10128 10125 10125 10124 10123 10123 10124 10125 10125 10124 10123 10120 10118 10117 10116 10114 10113 10112 10111 10109 10109 10108 10106 10106 10105 10104 10104 10103 10103 10103 10103 10103 10102 10102 10102 10102 10103 10103 10103 10104 10106 10107 10108 10108 10108 10108 10107 10107 10108 10108 10108 10109 10109 10109
10213 10210 10206 10203 10199 10195 10192 10189 10186 10183 10179 10176 10173 10171 10168 10165 10163 10160 10158 10154 10151 10148 10144 10140 10137 10135 10133 10131 10128 10125 10124 10121 10118 10116 10116 10116 10114 10114 10114 10115 10116 10116 10114 10111 10109 10108 10106 10106 10104 10103 10102 10101 10100 10099 10099 10098 10097 10096 10096 10096 10096 10096 10096 10096 10095 10095 10095 10095 10096 10096 10098 10099 10100 10101 10102 10102 10101 10101 10100 10101 10101 10101 10102 10102 10103 10103
10203 10199 10196 10193 10190 10186 10182 10178 10176 10173 10169 10166 10163 10160 10157 10154 10151 10149 10146 10144 10140 10136 10132 10129 10126 10124 10123 10121 10118 10116 10114 10113 10110 10109 10108 10108 10106 10106 10106 10106 10107 10106 10105 10103 10101 10099 10098 10097 10096 10095 10094 10093 10093 10092 10091 10091 10090 10089 10089 10089 10089 10089 10089 10089 10089 10089 10089 10089 10089 10091 10092 10093 10094 10095 10096 10095 10094 10094 10094 10094 10095 10096 10096 10096 10096 10097
10192 10188 10184 10183 10180 10176 10172 10168 10165 10162 10159 10156 10152 10149 10146 10144 10141 10139 10136 10134 10130 10126 10123 10120 10118 10114 10113 10111 10108 10106 10105 10104 10103 10101 10101 10101 10099 10098 10097 10098 10098 10098 10096 10094 10093 10091 10091 10089 10088 10087 10086 10086 10085 10084 10084 10084 10084 10083 10083 10083 10082 10082 10082 10082 10083 10083 10083 10083 10084 10085 10086 10088 10089 10089 10089 10089 10088 10088 10088 10089 10089 10090 10090 10091 10091 10091
10181 10178 10174 10171 10169 10166 10162 10159 10155 10152 10149 10146 10142 10138 10136 10133 10131 10128 10126 10123 10120 10116 10113 10110 10107 10105 10103 10101 10099 10098 10096 10096 10095 10094 10094 10093 10091 10089 10089 10089 10089 10089 10088 10086 10085 10084 10083 10082 10081 10080 10079 10079 10078 10078 10078 10078 10078 10077 10076 10076 10076 10076 10076 10076 10076 10077 10078 10078 10079 10080 10081 10083 10083 10084 10084 10083 10083 10083 10083 10083 10084 10084 10085 10085 10086 10086
10169 10167 10164 10161 10158 10154 10151 10148 10145 10142 10139 10136 10133 10129 10126 10124 10121 10118 10114 10112 10109 10106 10103 10101 10099 10096 10094 10093 10091 10089 10089 10088 10088 10088 10088 10086 10084 10082 10081 10081 10081 10081 10080 10079 10078 10077 10076 10075 10074 10073 10073 10073 10073 10072 10072 10072 10071 10071 10071 10070 10070 10070 10070 10071 10071 10072 10073 10073 10074 10075 10076 10078 10078 10078 10078 10078 10078 10078 10078 10078 10079 10079 10079 10080 10081 10081
10159 10156 10153 10150 10147 10144 10141 10138 10135 10132 10129 10127 10124 10122 10119 10116 10113 10108 10104 10101 10099 10097 10095 10093 10091 10088 10086 10084 10083 10082 10081 10081 10081 10081 10081 10079 10077 10074 10073 10073 10074 10073 10073 10072 10071 10071 10070 10069 10068 10068 10067 10067 10067 10067 10066 10066 10066 10065 10065 10064 10064 10064 10065 10065 10066 10067 10068 10069 10069 10071 10071 10072 10073 10073 10073 10073 10073 10073 10073 10074 10074 10074 10074 10075 10076 10076
10149 10146 10143 10140 10137 10134 10131 10129 10126 10124 10121 10119 10116 10113 10110 10107 10104 10100 10096 10094 10091 10089 10088 10086 10083 10081 10078 10078 10076 10075 10074 10074 10075 10075 10074 10073 10070 10068 10066 10066 10066 10066 10066 10065 10065 10065 10064 10064 10063 10063 10062 10062 10061 10061 10061 10061 10060 10060 10059 10059 10059 10059 10060 10061 10061 10063 10063 10064 10065 10066 10066 10067 10068 10068 10068 10068 10068 10068 10069 10069 10069 10070 10070 10071 10071 10072
10140 10137 10134 10131 10128 10126 10124 10121 10119 10116 10113 10109 10106 10103 10100 10097 10094 10091 10089 10086 10084 10082 10080 10078 10076 10074 10072 10071 10069 10068 10068 10068 10068 10069 10068 10066 10063 10061 10059 10059 10060 10060 10059 10059 10059 10060 10059 10059 10058 10058 10057 10057 10056 10056 10056 10055 10055 10054 10054 10054 10055 10055 10056 10056 10057 10058 10059 10059 10060 10061 10061 10062 10063 10063 10063 10063 10064 10064 10064 10064 10065 10066 10066 10066 10067 10068
10130 10127 10124 10122 10119 10118 10115 10113 10109 10106 10103 10099 10096 10093 10091 10088 10086 10084 10081 10079 10077 10075 10073 10071 10069 10067 10065 10064 10063 10062 10062 10062 10063 10063 10062 10060 10057 10054 10053 10053 10054 10054 10054 10054 10054 10055 10054 10054 10054 10053 10053 10052 10052 10051 10051 10050 10050 10050 10050 10050 10051 10051 10052 10053 10053 10054 10054 10055 10056 10056 10057 10058 10058 10059 10059 10059 10059 10059 10060 10061 10061 10061 10062 10062 10063 10063
10120 10117 10114 10112 10110 10108 10105 10103 10100 10097 10094 10091 10088 10085 10083 10081 10078 10076 10073 10072 10070 10069 10067 10065 10063 10061 10059 10058 10057 10056 10056 10056 10057 10056 10055 10053 10051 10049 10048 10048 10048 10048 10049 10049 10049 10049 10050 10050 10049 10049 10048 10048 10047 10046 10046 10046 10046 10046 10046 10046 10047 10047 10048 10048 10049 10049 10050 10051 10051 10052 10053 10054 10054 10054 10055 10055 10056 10056 10056 10057 10057 10058 10058 10058 10059 10059
10112 10109 10106 10103 10101 10099 10096 10094 10091 10089 10086 10084 10081 10078 10076 10073 10071 10069 10066 10065 10064 10062 10060 10059 10058 10056 10054 10053 10051 10051 10051 10051 10051 10051 10049 10047 10045 10044 10043 10043 10043 10043 10044 10044 10044 10044 10045 10046 10045 10045 10044 10043 10043 10043 10042 10042 10042 10042 10042 10042 10043 10043 10044 10044 10045 10046 10046 10047 10048 10048 10049 10050 10051 10051 10051 10052 10052 10053 10053 10053 10053 10054 10054 10054 10055 10056
10104 10101 10098 10096 10093 10091 10088 10086 10083 10081 10079 10076 10074 10071 10069 10066 10064 10063 10060 10059 10058 10056 10054 10053 10051 10050 10049 10048 10046 10046 10046 10046 10046 10044 10043 10041 10040 10039 10039 10039 10039 10039 10039 10039 10039 10040 10041 10041 10041 10041 10040 10039 10039 10039 10038 10038 10038 10038 10038 10038 10039 10039 10040 10041 10041 10042 10043 10043 10044 10045 10046 10046 10048 10048 10048 10049 10049 10049 10049 10049 10050 10050 10051 10051 10052 10053
10098 10094 10091 10088 10086 10083 10081 10078 10076 10074 10071 10069 10067 10064 10063 10060 10058 10056 10054 10053 10051 10050 10049 10048 10046 10045 10044 10043 10042 10041 10041 10041 10041 10039 10038 10036 10035 10034 10034 10034 10034 10034 10034 10035 10035 10036 10036 10037 10037 10037 10036 10036 10036 10035 10035 10034 10034 10034 10034 10034 10035 10036 10037 10038 10038 10039 10039 10040 10041 10042 10043 10044 10044 10045 10046 10046 10046 10046 10046 10046 10047 10047 10048 10048 10049 10049
10091 10088 10084 10082 10079 10076 10074 10072 10069 10068 10065 10063 10061 10059 10056 10054 10053 10051 10049 10048 10046 10045 10044 10042 10041 10040 10039 10038 10038 10036 10036 10036 10035 10034 10033 10032 10031 10030 10031 10031 10031 10030 10030 10031 10031 10032 10033 10033 10033 10033 10033 10033 10033 10033 10032 10031 10031 10031 10031 10031 10032 10033 10033 10034 10035 10036 10036 10037 10038 10039 10040 10041 10042 10043 10043 10043 10044 10044 10044 10044 10044 10044 10044 10045 10046 10046
10084 10081 10079 10076 10073 10071 10068 10066 10063 10061 10059 10057 10055 10053 10051 10049 10047 10045 10044 10043 10041 10040 10039 10038 10036 10035 10034 10034 10033 10033 10031 10031 10030 10029 10028 10028 10027 10026 10026 10027 10026 10026 10026 10026 10027 10028 10029 10029 10030 10030 10030 10030 10030 10030 10029 10029 10028 10028 10028 10028 10029 10029 10030 10031 10032 10033 10033 10034 10035 10036 10037 10038 10039 10039 10040 10041 10041 10041 10041 10041 10041 10041 10042 10043 10043 10044
10078 10075 10073 10070 10068 10065 10063 10060 10058 10056 10054 10051 10049 10048 10046 10044 10042 10041 10039 10038 10036 10035 10034 10033 10032 10031 10030 10029 10029 10028 10027 10026 10026 10024 10024 10024 10023 10023 10023 10023 10023 10023 10023 10023 10023 10023 10024 10026 10026 10028 10028 10028 10028 10027 10027 10026 10026 10025 10025 10025 10026 10026 10027 10028 10028 10029 10030 10031 10032 10033 10034 10035 10036 10037 10038 10038 10039 10039 10039 10039 10039 10039 10039 10040 10041 10041
10072 10069 10067 10064 10062 10059 10057 10054 10053 10051 10048 10046 10044 10043 10041 10039 10038 10036 10034 10033 10031 10030 10029 10029 10028 10027 10026 10026 10024 10024 10023 10022 10021 10021 10020 10019 10019 10019 10019 10019 10019 10019 10019 10019 10019 10020 10021 10022 10023 10024 10024 10025 10025 10024 10024 10024 10023 10023 10022 10023 10023 10023 10024 10024 10025 10026 10027 10028 10029 10030 10031 10032 10033 10034 10035 10036 10037 10037 10038 10038 10038 10038 10038 10038 10038 10039
10066 10063 10061 10059 10056 10054 10051 10049 10047 10045 10043 10041 10039 10038 10036 10034 10033 10031 10030 10028 10027 10026 10025 10024 10024 10023 10022 10021 10021 10020 10019 10018 10018 10017 10016 10016 10016 10016 10016 10015 10015 10016 10016 10016 10016 10016 10018 10018 10019 10021 10022 10023 10023 10023 10022 10021 10021 10020 10020 10020 10020 10020 10021 10021 10022 10023 10023 10024 10025 10026 10028 10029 10030 10031 10032 10033 10034 10035 10036 10036 10036 10036 10036 10036 10036 10036
10060 10058 10055 10053 10051 10049 10046 10044 10042 10040 10038 10036 10035 10033 10032 10030 10029 10027 10026 10024 10023 10022 10021 10021 10019 10019 10018 10018 10017 10016 10016 10015 10014 10013 10013 10012 10012 10012 10012 10012 10012 10013 10013 10013 10013 10013 10014 10014 10016 10017 10018 10019 10020 10020 10020 10019 10019 10018 10018 10018 10018 10018 10018 10019 10019 10019 10020 10021 10022 10023 10024 10025 10026 10028 10029 10031 10032 10033 10033 10034 10034 10034 10034 10034 10034 10034
10054 10052 10050 10048 10046 10043 10041 10039 10038 10036 10034 10032 10031 10029 10028 10026 10024 10023 10022 10021 10019 10019 10018 10017 10016 10015 10014 10014 10013 10013 10012 10011 10011 10010 10009 10009 10009 10009 10009 10009 10009 10009 10009 10010 10010 10010 10011 10011 10013 10013 10014 10016 10017 10018 10018 10018 10018 10017 10016 10016 10016 10016 10016 10016 10016 10017 10018 10018 10019 10019 10021 10022 10023 10024 10026 10028 10029 10030 10031 10031 10032 10032 10032 10032 10032 10032
10049 10047 10044 10043 10040 10038 10036 10034 10033 10031 10029 10028 10026 10025 10024 10022 10021 10019 10018 10018 10016 10015 10014 10013 10013 10011 10011 10010 10009 10009 10009 10008 10008 10007 10006 10006 10006 10006 10006 10006 10006 10006 10007 10007 10007 10008 10008 10008 10009 10010 10011 10013 10014 10014 10016 10016 10016 10016 10015 10014 10014 10014 10014 10014 10014 10014 10015 10016 10016 10016 10017 10018 10019 10021 10023 10024 10026 10028 10028 10029 10029 10029 10029 10029 10029 10029
10044 10041 10039 10038 10035 10033 10031 10030 10028 10026 10025 10024 10023 10021 10020 10019 10018 10016 10015 10014 10013 10012 10011 10010 10009 10008 10008 10007 10006 10006 10005 10005 10004 10004 10003 10003 10003 10003 10003 10004 10004 10004 10004 10004 10004 10004 10005 10006 10006 10007 10008 10009 10010 10011 10013 10013 10014 10014 10014 10014 10013 10013 10013 10013 10013 10013 10013 10013 10013 10014 10014 10015 10016 10018 10019 10021 10023 10024 10026 10026 10027 10027 10027 10027 10027 10027
10039 10036 10034 10033 10031 10029 10027 10026 10024 10023 10021 10020 10019 10018 10016 10015 10014 10013 10012 10011 10010 10009 10008 10007 10006 10005 10004 10003 10003 10003 10002 10002 10001 10001 10001 10001 10000 10000 10001 10001 10001 10001 10001 10001 10001 10002 10002 10003 10003 10004 10004 10006 10007 10008 10009 10010 10011 10011 10012 10012 10012 10012 10012 10012 10011 10011 10011 10011 10011 10011 10012 10013 10014 10015 10016 10018 10019 10021 10023 10023 10024 10024 10024 10024 10024 10025
10034 10032 10030 10028 10026 10024 10023 10021 10020 10019 10018 10016 10015 10014 10013 10012 10011 10009 10009 10008 10007 10006 10005 10004 10003 10002 10001 10001 10000 9999 9999 9999 9999 9998 9998 9998 9998 9998 9998 9998 9998 9999 9999 9999 9999 9999 9999 9999 10000 10001 10001 10003 10003 10004 10005 10006 10007 10008 10009 10009 10010 10011 10011 10011 10011 10010 10010 10009 10009 10009 10010 10011 10011 10013 10014 10015 10016 10018 10019 10021 10021 10022 10022 10022 10022 10023
10029 10028 10026 10024 10022 10021 10019 10018 10016 10015 10014 10013 10012 10011 10009 10009 10008 10007 10006 10004 10004 10003 10002 10001 10000 9999 9999 9998 9997 9997 9996 9996 9996 9996 9996 9996 9996 9996 9996 9996 9996 9996 9996 9997 9997 9997 9997 9997 9998 9998 9998 9999 10000 10001 10002 10003 10004 10004 10006 10006 10008 10008 10009 10009 10009 10009 10009 10008 10008 10008 10008 10009 10009 10010 10011 10012 10013 10015 10016 10018 10019 10019 10020 10020 10020 10020
10025 10023 10021 10020 10018 10017 10015 10014 10013 10011 10011 10009 10008 10008 10006 10006 10004 10004 10003 10001 10001 10000 9999 9998 9998 9997 9996 9996 9995 9994 9994 9993 9993 9993 9993 9993 9993 9993 9993 9993 9993 9993 9994 9994 9994 9994 9994 9994 9994 9995 9996 9996 9996 9998 9998 9999 10000 10001 10002 10003 10004 10005 10006 10007 10007 10007 10007 10006 10006 10006 10007 10007 10007 10008 10008 10009 10010 10012 10013 10015 10016 10017 10018 10018 10018 10018
10021 10019 10018 10016 10014 10013 10011 10010 10009 10008 10007 10006 10005 10004 10004 10003 10002 10001 10000 9999 9998 9997 9996 9996 9995 9994 9994 9993 9993 9992 9991 9991 9991 9990 9990 9990 9990 9990 9990 9990 9991 9991 9991 9991 9991 9991 9991 9992 9992 9992 9993 9993 9993 9994 9995 9996 9997 9998 9998 9999 10001 10001 10003 10004 10004 10004 10004 10005 10005 10005 10005 10005 10005 10005 10006 10006 10008 10009 10010 10012 10013 10014 10015 10016 10016 10016
10017 10015 10014 10012 10011 10009 10008 10007 10006 10005 10004 10003 10003 10001 10001 10000 9999 9998 9997 9996 9996 9994 9994 9993 9993 9993 9992 9991 9991 9990 9989 9989 9988 9988 9988 9988 9987 9987 9987 9988 9988 9988 9988 9988 9988 9988 9988 9989 9989 9989 9989 9989 9990 9991 9991 9992 9993 9994 9995 9996 9997 9998 9999 10000 10001 10001 10002 10003 10003 10003 10003 10003 10003 10003 10003 10004 10004 10006 10007 10009 10010 10011 10013 10014 10014 10014
10013 10011 10010 10009 10008 10006 10005 10004 10003 10002 10001 10000 9999 9999 9998 9997 9996 9995 9994 9994 9993 9992 9991 9991 9991 9991 9990 9989 9989 9988 9988 9987 9986 9986 9985 9985 9984 9984 9984 9984 9984 9984 9984 9984 9984 9984 9985 9985 9985 9986 9986 9986 9987 9987 9988 9989 9989 9990 9991 9992 9993 9994 9995 9996 9998 9999 9999 10000 10000 10001 10001 10001 10001 10001 10001 10001 10002 10003 10004 10006 10007 10009 10010 10011 10012 10013
10009 10008 10006 10005 10004 10003 10001 10001 9999 9999 9998 9997 9996 9996 9995 9994 9994 9993 9992 9991 9991 9990 9989 9989 9989 9988 9988 9988 9987 9986 9986 9985 9984 9984 9983 9983 9983 9982 9982 9981 9981 9981 9981 9981 9981 9981 9981 9981 9982 9982 9983 9983 9984 9984 9984 9985 9986 9986 9987 9988 9989 9990 9991 9993 9994 9995 9996 9997 9998 9998 9999 9999 9999 9999 9999 9999 9999 10000 10001 10003 10004 10006 10008 10009 10009 10010
10006 10004 10003 10002 10001 9999 9998 9998 9996 9996 9995 9994 9994 9993 9992 9991 9991 9991 9990 9989 9989 9988 9988 9988 9987 9986 9986 9986 9985 9985 9984 9984 9983 9983 9982 9981 9981 9981 9980 9979 9979 9979 9979 9979 9978 9978 9978 9978 9979 9979 9979 9980 9980 9981 9981 9982 9982 9983 9983 9984 9985 9986 9987 9988 9990 9991 9993 9993 9994 9995 9996 9996 9996 9996 9996 9996 9997 9998 9999 10000 10002 10003 10004 10006 10007 10008
10003 10001 10000 9999 9998 9997 9996 9994 9994 9993 9992 9991 9991 9990 9989 9989 9989 9988 9988 9988 9987 9986 9986 9986 9985 9985 9984 9984 9984 9983 9983 9983 9982 9981 9981 9980 9979 9979 9979 9978 9978 9977 9976 9976 9976 9976 9976 9976 9976 9976 9976 9976 9977 9977 9978 9978 9979 9979 9979 9981 9981 9983 9983 9984 9986 9988 9989 9989 9991 9992 9993 9993 9993 9993 9993 9994 9994 9995 9996 9998 9999 10001 10002 10003 10004 10005
9999 9998 9998 9996 9995 9994 9993 9992 9991 9990 9989 9989 9988 9988 9988 9987 9986 9986 9986 9986 9985 9984 9984 9984 9984 9983 9983 9983 9982 9982 9981 9981 9981 9980 9979 9979 9978 9978 9977 9976 9976 9975 9974 9974 9974 9973 9973 9973 9973 9973 9973 9974 9974 9974 9974 9975 9975 9976 9976 9977 9978 9979 9979 9981 9982 9983 9985 9986 9987 9988 9989 9989 9990 9990 9991 9991 9992 9993 9994 9996 9997 9998 9999 10001 10002 10003